Change the Weather History Date:

Wednesday, October 10, 2012

  Actual Average Record
Temperature  
Mean Temperature 76 °F -  
Max Temperature 89 °F 72 °F 93 °F (2011)
Min Temperature 64 °F 53 °F 48 °F (1996)
Cooling Degree Days 12    
Growing Degree Days 26 (Base 50)    
Moisture  
Dew Point 63 °F    
Average Humidity 67    
Maximum Humidity 83    
Minimum Humidity 49    
Precipitation  
Precipitation 0.00 in - - ()
Sea Level Pressure  
Sea Level Pressure 29.97 in    
Wind  
Wind Speed 5 mph ()    
Max Wind Speed 9 mph    
Max Gust Speed -    
Visibility 6.2 miles    
Events      
Averages and records for this station are not official NWS values.
T = Trace of Precipitation, MM = Missing Value Source: Averaged Metar Reports

Daily Weather History Graph

Daily Weather History Graph

Search for Another Location

Airport or City:

Trip Planner

Search our weather history database for the weather conditions in past years. The results will help you decide how hot, cold, wet, or windy it might be!

Date:

Astronomy

Oct. 10, 2012 Rise Set
Actual Time 8:25 AM CEST 7:52 PM CEST
Civil Twilight 7:59 AM CEST 8:18 PM CEST
Nautical Twilight 7:29 AM CEST 8:48 PM CEST
Astronomical Twilight 6:59 AM CEST 9:18 PM CEST
Moon 2:55 AM CEST (10/10) 4:40 PM CEST (10/10)
Length of Visible Light 12h 18m
Length of Day
11h 26m
Waning Crescent, 30% of the Moon is Illuminated
Oct 10
Waning Crescent
Oct 15
New
Oct 22
First Quarter
Oct 29
Full
Nov 7
Last Quarter

Hourly Weather History & Observations

Time (CEST) Temp. Heat Index Dew Point Humidity Pressure Visibility Wind Dir Wind Speed Gust Speed Precip Events Conditions
12:00 AM 73.4 °F - 60.8 °F 65% 30.01 in - South 5.8 mph - N/A   Clear
1:00 AM 73.4 °F - 59.0 °F 61% 29.98 in - SSW 8.1 mph - N/A   Clear
2:00 AM 71.6 °F - 59.0 °F 64% 29.98 in - South 4.6 mph - N/A   Clear
3:00 AM 68.0 °F - 59.0 °F 73% 29.98 in - Variable 2.3 mph - N/A   Clear
4:00 AM 69.8 °F - 60.8 °F 73% 29.98 in - Variable 2.3 mph - N/A   Clear
5:00 AM 66.2 °F - 59.0 °F 78% 29.95 in - Calm Calm - N/A   Clear
6:00 AM 66.2 °F - 59.0 °F 78% 29.95 in - Variable 2.3 mph - N/A   Clear
7:00 AM 66.2 °F - 59.0 °F 78% 29.95 in - Calm Calm - N/A   Clear
8:00 AM 64.4 °F - 59.0 °F 83% 29.98 in - Calm Calm - N/A   Clear
9:00 AM 64.4 °F - 59.0 °F 83% 29.98 in - Variable 3.5 mph - N/A   Clear
10:00 AM 69.8 °F - 59.0 °F 68% 29.98 in - Variable 2.3 mph - N/A   Clear
12:00 PM 77.0 °F - 66.2 °F 69% 29.98 in - West 4.6 mph - N/A   Clear
1:00 PM 82.4 °F 83.9 °F 64.4 °F 54% 30.01 in - West 8.1 mph - N/A   Clear
2:00 PM 84.2 °F 87.3 °F 68.0 °F 58% 30.01 in - West 8.1 mph - N/A   Clear
3:00 PM 87.8 °F 91.4 °F 68.0 °F 52% 29.98 in - West 8.1 mph - N/A   Clear
4:00 PM 87.8 °F 91.4 °F 68.0 °F 52% 29.95 in - West 8.1 mph - N/A   Clear
5:00 PM 89.6 °F 93.4 °F 68.0 °F 49% 29.95 in - West 8.1 mph - N/A   Clear
6:00 PM 86.0 °F 89.4 °F 68.0 °F 55% 29.95 in - West 8.1 mph - N/A   Clear
7:00 PM 82.4 °F 85.4 °F 68.0 °F 62% 29.95 in 6.2 mi West 8.1 mph - N/A   Partly Cloudy
8:00 PM 78.8 °F - 68.0 °F 69% 29.95 in 6.2 mi West 8.1 mph - N/A   Partly Cloudy
9:00 PM 77.0 °F - 66.2 °F 69% 29.98 in 6.2 mi West 9.2 mph - N/A   Partly Cloudy
10:00 PM 73.4 °F - 64.4 °F 73% 29.98 in 6.2 mi West 9.2 mph - N/A   Partly Cloudy
11:00 PM 71.6 °F - 66.2 °F 83% 30.01 in - West 9.2 mph - N/A   Clear